NOAA NWS Hourly Roundups by Site

Regional Weather Roundup for Seattle, WA

To Select Another Site Choose from List

Select Site:  

000
ASUS46 KSEW 171920
RWRWA

WASHINGTON REGIONAL WEATHER ROUNDUP
NATIONAL WEATHER SERVICE SEATTLE WA
1200 PM PDT SUN OCT 17 2021

NOTE:"FAIR" INDICATES FEW OR NO CLOUDS BELOW 12,000 FEET WITH NO
SIGNIFICANT WEATHER AND/OR OBSTRUCTIONS TO VISIBILITY.

WAZ507-509-555>559-172000-
SEATTLE, TACOMA, EVERETT, AND VICINITY

CITY           SKY/WX    TMP DP  RH WIND       PRES   REMARKS
EVERETT        CLOUDY    52  50  93 N8        29.69S
BOEING FIELD   CLOUDY    57  51  80 VRB3      29.68F
RENTON         CLOUDY    57  49  74 CALM      29.68S
SEATAC AIRPORT CLOUDY    55  50  83 S6        29.68F
JBLM-MCCHORD   CLOUDY    56  50  82 SW6       29.69S
PUYALLUP       CLOUDY    55  52  88 CALM      29.69S
BREMERTON      CLOUDY    53  51  93 CALM      29.69S
JBLM-FT LEWIS  CLOUDY    54  48  80 W12       29.68F
TACOMA NARROWS CLOUDY    52  50  93 SW7       29.69F
$$

WAZ001-503-506-510-514-515-172000-
NORTH INTERIOR

CITY           SKY/WX    TMP DP  RH WIND       PRES   REMARKS
BELLINGHAM     LGT RAIN  54  53  97 CALM      29.69S FOG
FRIDAY HARBOR  CLOUDY    53  49  86 CALM      29.70S
EASTSOUND      CLOUDY    55  48  76 CALM      29.69R
PORT ANGELES   CLOUDY    52  48  86 NW6       29.70F
EDIZ HOOK      RAIN      50  50  99 W3        29.70S
PORT TOWNSEND  LGT RAIN  52  50  93 NW8       29.69S
NAS WHIDBEY    LGT RAIN  53  50  89 CALM      29.74S
ARLINGTON      CLOUDY    55  52  88 NW12      29.69F
BURLINGTON     CLOUDY    54  52  94 CALM      29.70S FOG
$$

WAZ020-022-039-040-504-511-512-172000-
SOUTHWEST INTERIOR

CITY           SKY/WX    TMP DP  RH WIND       PRES   REMARKS
SHELTON        LGT RAIN  51  50  96 SW9       29.67S
OLYMPIA        CLOUDY    53  51  93 NW3       29.69S
CHEHALIS       CLOUDY    52  50  93 CALM      29.71S
KELSO          CLOUDY    56  50  80 CALM      29.70R
VANCOUVER      CLOUDY    57  50  77 E6        29.70F
SCAPPOOSE, OR  CLOUDY    57  51  80 SE5       29.69S
PORTLAND, OR   CLOUDY    58  50  75 SE3       29.70F
$$

WAZ021-516-517-172000-
WASHINGTON COAST

CITY           SKY/WX    TMP DP  RH WIND       PRES   REMARKS
FORKS          CLOUDY    51  46  83 NW6       29.73S
HOQUIAM        LGT RAIN  53  49  86 W6        29.72F
ASTORIA, OR    LGT RAIN  52  50  93 NW10      29.71S
$$

WAZ019-023-024-040-567>569-172000-
CASCADE MOUNTAINS AND COLUMBIA GORGE

CITY           SKY/WX    TMP DP  RH WIND       PRES   REMARKS
STAMPEDE PASS  PTSUNNY   52  39  61 VRB3      29.69S
TROUTDALE, OR  CLOUDY    57  50  77 CALM      29.70F
HOOD RIVER, OR CLOUDY    52  46  82 CALM      29.69F
THE DALLES, OR CLOUDY    55  45  68 CALM      29.68F
$$

WAZ026-027-041>044-520-521-172000-
EAST SLOPES

CITY           SKY/WX    TMP DP  RH WIND       PRES   REMARKS
OMAK           MOSUNNY   55  39  54 SE3       29.67F
WENATCHEE      MOSUNNY   56  41  57 NW5       29.66F
ELLENSBURG     PTSUNNY   54  41  61 CALM      29.68F
YAKIMA         PTSUNNY   58  42  55 NW3       29.67F
SUNNYSIDE ARPT PTCLDY    57  40  53 CALM      29.67F
YAKIMA TC      FAIR      57  38  49 CALM      29.65F
$$

WAZ028-034-035-172000-
COLUMBIA BASIN

CITY           SKY/WX    TMP DP  RH WIND       PRES   REMARKS
EPHRATA        MOSUNNY   56  36  47 E5        29.68S
MOSES LAKE     MOSUNNY   54  34  46 CALM      29.69F
PASCO          MOSUNNY   59  45  59 VRB6      29.69F
RICHLAND ARPT  PTCLDY    59  45  60 CALM      29.68F
HERMISTON, OR  MOSUNNY   62  43  49 CALM      29.67F
$$

WAZ036>038-172000-
NORTHEAST WASHINGTON

CITY           SKY/WX    TMP DP  RH WIND       PRES   REMARKS
SPOKANE GEIGER PTSUNNY   60  38  43 SE5       29.71F
SPOKANE FELTS  PTSUNNY   59  43  55 VRB3      29.71F
FAIRCHILD AFB  MOSUNNY   62  33  33 S10       29.69F
COEURDALENE,ID PTSUNNY   59  42  53 N5        29.73F
DEER PARK      PTSUNNY   56  39  53 CALM      29.72F
$$

WAZ029>033-172000-
SOUTHEAST WASHINGTON

CITY           SKY/WX    TMP DP  RH WIND       PRES   REMARKS
PULLMAN        PTSUNNY   66  30  26 E9        29.72F
LEWISTON, ID   MOSUNNY   67  37  33 N6        29.68F
WALLA WALLA    MOSUNNY   61  41  47 VRB3      29.68F
PENDLETON, OR  MOSUNNY   64  41  42 VRB5      29.68F
$$


 

View Past Reports for Seattle, WA.

Products Courtesy of NOAA-NWS
NWS Information Parsing Script by Ken True at Saratoga Weather - Script by SE Lincoln Weather.